Location: Central Falls
(41.8900°N, 71.3929°W)
Time: 02:54:13
(UTC+00:00)

Tiros 1 - Pass Details

Date: 06 December 2023
Orbit: 625 x 658 km, 48.4° (Epoch: 01 March)

Event Time Altitude Azimuth Distance (km) Brightness Sun altitude
Rises 09:49:43 0° 259° (W) 2,976 - -23.2°
Reaches altitude 10° 09:52:07 10° 264° (W) 2,068 - -22.8°
Exits shadow 09:56:28 52° 326° (NW) 825 7.3 -22.0°
Maximum altitude 09:56:47 53° 342° (NNW) 814 7.4 -22.0°
Drops below altitude 10° 10:01:29 10° 59° (ENE) 2,075 10.4 -21.1°
Sets 10:03:53 0° 65° (ENE) 2,986 11.4 -20.7°
